URO445P EGFF-EGHH

Flight info

Callsign URO445P
Flight time 0h 15m
Altitude 15000
Route LEKCI P4 HAWFA L607 NUCHU L18 NUBRI
Aircraft A346/H-SDE2E3FGHIJ3J4J5M1RWXY/LB1D1

Departure

Time 2026-04-28 19:18
Airport Cardiff International Airport (EGFF)

Arrival

Time 2026-04-28 19:33
Airport Bournemouth Airport (EGHH)
Time Latitude Longitude Altitude Speed Heading
2026-04-28 19:08 51.39689 -3.33618 228 ft 0 kts 27°
2026-04-28 19:12 51.39680 -3.33626 233 ft 4 kts 29°
2026-04-28 19:12 51.39658 -3.33645 234 ft 4 kts 14°
2026-04-28 19:13 51.39646 -3.33643 231 ft 4 kts 345°
2026-04-28 19:13 51.39627 -3.33628 230 ft 4 kts 314°
2026-04-28 19:13 51.39614 -3.33596 231 ft 4 kts 295°
2026-04-28 19:13 51.39607 -3.33573 232 ft 0 kts 297°
2026-04-28 19:15 51.39615 -3.33597 231 ft 12 kts 297°
2026-04-28 19:15 51.39684 -3.33814 231 ft 25 kts 297°
2026-04-28 19:15 51.39737 -3.33979 236 ft 26 kts 297°
2026-04-28 19:16 51.39850 -3.34338 232 ft 28 kts 296°
2026-04-28 19:16 51.39942 -3.34634 233 ft 31 kts 297°
2026-04-28 19:16 51.40044 -3.34955 227 ft 34 kts 297°
2026-04-28 19:16 51.40145 -3.35307 225 ft 34 kts 274°
2026-04-28 19:17 51.40072 -3.35520 229 ft 12 kts 204°
2026-04-28 19:17 51.40033 -3.35486 226 ft 12 kts 128°
2026-04-28 19:17 51.39889 -3.35048 228 ft 90 kts 116°
2026-04-28 19:17 51.39471 -3.33731 244 ft 169 kts 116°
2026-04-28 19:18 51.38857 -3.31870 739 ft 201 kts 111°
2026-04-28 19:18 51.38225 -3.29781 1731 ft 216 kts 108°
2026-04-28 19:18 51.37587 -3.27552 2809 ft 221 kts 109°
2026-04-28 19:18 51.36917 -3.25291 3634 ft 235 kts 111°
2026-04-28 19:19 51.36195 -3.22896 4610 ft 240 kts 112°
2026-04-28 19:19 51.35350 -3.20546 5560 ft 247 kts 122°
2026-04-28 19:19 51.34275 -3.18364 6665 ft 250 kts 126°
2026-04-28 19:19 51.33161 -3.16208 7650 ft 254 kts 126°
2026-04-28 19:20 51.32029 -3.14009 8679 ft 257 kts 125°
2026-04-28 19:20 51.30893 -3.11776 9689 ft 260 kts 124°
2026-04-28 19:20 51.29748 -3.09506 10645 ft 264 kts 124°
2026-04-28 19:20 51.28571 -3.07155 11303 ft 279 kts 124°
2026-04-28 19:21 51.27325 -3.04651 11816 ft 297 kts 124°
2026-04-28 19:21 51.26017 -3.02022 12305 ft 315 kts 124°
2026-04-28 19:21 51.24609 -2.99193 12798 ft 334 kts 124°
2026-04-28 19:21 51.23117 -2.96202 13255 ft 352 kts 124°
2026-04-28 19:22 51.21554 -2.93075 13905 ft 363 kts 125°
2026-04-28 19:22 51.21040 -2.92049 14169 ft 365 kts 125°
2026-04-28 19:22 51.18360 -2.86715 15099 ft 367 kts 124°
2026-04-28 19:22 51.16780 -2.83568 15290 ft 368 kts 124°
2026-04-28 19:23 51.15190 -2.80400 15334 ft 363 kts 124°
2026-04-28 19:23 51.13623 -2.77285 14977 ft 357 kts 124°
2026-04-28 19:23 51.12086 -2.74230 14620 ft 350 kts 124°
2026-04-28 19:23 51.10572 -2.71224 14271 ft 344 kts 125°
2026-04-28 19:24 51.09085 -2.68277 13891 ft 338 kts 125°
2026-04-28 19:24 51.07622 -2.65380 13482 ft 333 kts 125°
2026-04-28 19:24 51.06179 -2.62528 13088 ft 328 kts 125°
2026-04-28 19:24 51.05233 -2.60660 12833 ft 325 kts 125°
2026-04-28 19:25 51.03826 -2.57882 12454 ft 320 kts 125°
2026-04-28 19:25 51.02439 -2.55147 12091 ft 315 kts 125°
2026-04-28 19:25 51.01073 -2.52456 11736 ft 310 kts 125°
2026-04-28 19:25 50.99730 -2.49811 11389 ft 305 kts 125°
2026-04-28 19:26 50.98401 -2.47197 11045 ft 301 kts 125°
2026-04-28 19:26 50.97094 -2.44630 10727 ft 296 kts 125°
2026-04-28 19:26 50.95804 -2.42099 10424 ft 292 kts 124°
2026-04-28 19:26 50.94552 -2.39647 10114 ft 287 kts 124°
2026-04-28 19:27 50.93302 -2.37196 9781 ft 283 kts 124°
2026-04-28 19:27 50.92071 -2.34783 9457 ft 279 kts 125°
2026-04-28 19:27 50.90851 -2.32395 9156 ft 274 kts 125°
2026-04-28 19:27 50.89657 -2.30064 8798 ft 269 kts 125°
2026-04-28 19:28 50.88490 -2.27788 8296 ft 261 kts 125°
2026-04-28 19:28 50.87358 -2.25584 7799 ft 255 kts 125°
2026-04-28 19:28 50.86244 -2.23411 7199 ft 253 kts 125°
2026-04-28 19:28 50.85140 -2.21259 6650 ft 250 kts 125°
2026-04-28 19:29 50.84042 -2.19127 6034 ft 249 kts 125°
2026-04-28 19:29 50.83320 -2.17726 5650 ft 247 kts 124°
2026-04-28 19:29 50.81917 -2.15008 5134 ft 234 kts 124°
2026-04-28 19:29 50.80905 -2.13047 4724 ft 226 kts 124°
2026-04-28 19:30 50.79922 -2.11150 4317 ft 220 kts 123°
2026-04-28 19:30 50.78959 -2.09290 3967 ft 216 kts 122°
2026-04-28 19:30 50.78018 -2.07470 3742 ft 211 kts 122°
2026-04-28 19:30 50.77092 -2.05678 3497 ft 209 kts 121°
2026-04-28 19:31 50.76175 -2.03897 3201 ft 209 kts 121°
2026-04-28 19:31 50.75457 -2.01962 2858 ft 200 kts 94°
2026-04-28 19:31 50.75450 -1.99829 2607 ft 190 kts 76°
2026-04-28 19:31 50.75734 -1.97813 2361 ft 188 kts 72°
2026-04-28 19:32 50.76091 -1.95767 1883 ft 193 kts 71°
2026-04-28 19:32 50.76465 -1.93778 1574 ft 184 kts 70°
2026-04-28 19:32 50.76796 -1.91858 1220 ft 179 kts 74°
2026-04-28 19:32 50.77058 -1.89961 730 ft 177 kts 73°
2026-04-28 19:33 50.77356 -1.88150 456 ft 165 kts 70°
2026-04-28 19:33 50.77639 -1.86451 212 ft 155 kts 72°
2026-04-28 19:33 50.77905 -1.84875 52 ft 135 kts 75°
2026-04-28 19:33 50.78071 -1.83874 49 ft 49 kts 75°
2026-04-28 19:34 50.78120 -1.83583 54 ft 20 kts 75°
2026-04-28 19:34 50.78157 -1.83356 51 ft 23 kts 76°
2026-04-28 19:34 50.78198 -1.83098 53 ft 25 kts 76°
2026-04-28 19:34 50.78227 -1.82865 51 ft 17 kts 94°
2026-04-28 19:35 50.78214 -1.82774 46 ft 3 kts 55°
2026-04-28 19:35 50.78230 -1.82776 47 ft 3 kts 334°
2026-04-28 19:35 50.78236 -1.82866 44 ft 16 kts 259°
2026-04-28 19:35 50.78208 -1.83058 50 ft 19 kts 255°
2026-04-28 19:36 50.78173 -1.83274 47 ft 22 kts 255°
2026-04-28 19:36 50.78132 -1.83520 50 ft 24 kts 255°
2026-04-28 19:36 50.78082 -1.83799 52 ft 27 kts 256°
2026-04-28 19:36 50.78174 -1.83940 50 ft 24 kts 346°
2026-04-28 19:37 50.78344 -1.84009 53 ft 26 kts 346°
2026-04-28 19:37 50.78464 -1.84058 52 ft 28 kts 345°
2026-04-28 19:37 50.78641 -1.84133 51 ft 0 kts 344°